Regional Weather Roundup
Issued by NWS

Home | Current Version | Previous Version | Text Only | Print | Product List | Glossary Off
Versions: 1 2 3 4 5 6 7 8 9 10 11 12 13 14 15 16 17 18 19 20 21 22 23 24 25 26 27 28 29 30 31 32 33 34 35 36 37 38 39 40 41 42 43 44 45 46 47 48 49 50

000
ASUS43 KIND 202200
RWRIN

WEATHER ROUNDUP FOR INDIANA
NATIONAL WEATHER SERVICE INDIANAPOLIS IN
600 PM EDT SUN MAY 20 2018

NOTE: "FAIR" INDICATES FEW OR NO CLOUDS BELOW 12,000 FEET WITH NO
SIGNIFICANT WEATHER AND/OR OBSTRUCTIONS TO VISIBILITY.

* - STATION DOES NOT REPORT WEATHER SUCH AS PRECIPITATION OR FOG.

+ - STATION NOT QUALITY CONTROLLED BY THE NATIONAL WEATHER SERVICE.
    USE DATA WITH CAUTION...ESPECIALLY DEWPOINT AND RELATIVE
    HUMIDITY OBSERVATIONS.

INZ001>003-010>013-019-020-202300-
NORTHWEST INDIANA

CITY           SKY/WX    TMP DP  RH WIND       PRES   REMARKS
GARY /AIRPORT/ CLOUDY    46  45  93 N12       30.19F
KNOX *+        CLOUDY    63  59  88 NE7       30.14F
LA PORTE +     CLOUDY    52  49  90 N12       30.16F
MICHIGAN CITY+ CLOUDY    46  46 100 N6        30.18F
MONTICELLO +   FAIR     N/A N/A N/A NE12      30.09F

$$

LMZ046-743>745-202300-
SOUTHERN LAKE MICHIGAN

STATION/POSITION TIME  TEMP    WIND        PRES    WAVE
                       AIR SEA DIR/SP/G            HT
                 (UTC) (F)     (DEG/KT/KT) (MB)    (FT)
BURNS HARBOR     2140   45      30/ 14/ 16 1022.0F
MICHIGAN CITY    2130   44     360/ 17/ 18   N/A
5NW MICH CITY    2150   45 52   30/ 14/ 17   N/A     4

$$

INZ004-005-014>016-021>024-202300-
NORTH CENTRAL INDIANA

CITY           SKY/WX    TMP DP  RH WIND       PRES   REMARKS
GOSHEN         CLOUDY    66  60  81 N6        30.14F
PERU/GRISSOM   FAIR      74  64  70 N6        30.10F
ROCHESTER +    CLOUDY    72  61  68 N5        30.13S
SOUTH BEND     CLOUDY    62  57  83 NW15      30.15F
WARSAW +       FAIR      68  61  77 NE5       30.12F

$$

INZ006>009-017-018-025>027-202300-
NORTHEAST INDIANA

CITY           SKY/WX    TMP DP  RH WIND       PRES   REMARKS
ANGOLA *+      CLOUDY    64  59  82 NE7       30.14S
AUBURN +       PTSUNNY   68  61  77 E7        30.14F
FORT WAYNE     PTSUNNY   71  62  73 NE7       30.12F
KENDALLVILLE +   N/A     68  58  71 E6        30.14F

$$

INZ028-029-035-036-043>045-051>053-202300-
WEST CENTRAL INDIANA

CITY           SKY/WX    TMP DP  RH WIND       PRES   REMARKS
GREENCASTLE +  FAIR      81  59  47 CALM      30.08F
LAFAYETTE      FAIR      70  63  78 NE12      30.07F
TERRE HAUTE    FAIR      83  63  50 CALM      30.06F

$$

INZ030>032-037>040-046>048-054>057-064-065-202300-
CENTRAL INDIANA

CITY           SKY/WX    TMP DP  RH WIND       PRES   REMARKS
ANDERSON       FAIR      78  64  63 N7        30.10
FRANKFORT +    FAIR      76  66  69 NE10      30.11F
GREENWOOD *+   FAIR      83  62  49 N12       30.08S
INDIANAPOLIS   PTSUNNY   83  63  50 N10       30.07F
-EAGLE CREEK   FAIR      81  63  54 N7        30.06F
KOKOMO +       FAIR      74  63  68 NE8       30.12F
MT COMFORT *+  FAIR      81  70  69 N13G18    30.08F
SHELBYVILLE    FAIR      79  68  69 E8        30.06F
ZIONSVILLE +   FAIR      76  67  74 NE10G16   30.09F

$$

INZ033-034-041-042-049-050-058-059-202300-
EAST CENTRAL INDIANA

CITY           SKY/WX    TMP DP  RH WIND       PRES   REMARKS
MUNCIE         FAIR      78  64  61 N8        30.10F
RICHMOND +     PTSUNNY   68  68 100 NE13      30.10S

$$

INZ060-061-067>069-081>083-085>088-202300-
SOUTHWEST INDIANA

CITY           SKY/WX    TMP DP  RH WIND       PRES   REMARKS
EVANSVILLE     FAIR      83  68  60 W7        30.06S
HUNTINGBURG +  PTSUNNY   86  67  52 W9        30.04F

$$

INZ062-063-066-070>080-084-089>092-202300-
SOUTH CENTRAL AND SOUTHEAST INDIANA

CITY           SKY/WX    TMP DP  RH WIND       PRES   REMARKS
BLOOMINGTON    FAIR      83  64  52 N7        30.06F
FRENCH LICK *+ FAIR      86  55  35 NW5       30.06S
SEYMOUR +      PTSUNNY   88  63  42 W8        30.05R

$$





USA.gov is the U.S. government's official web portal to all federal, state and local government web resources and services.